Lamar, CO

11:16 AM MDT on August 20, 2017 (GMT -0600)
Lamar Municipal

Weather History for KLAA - July, 2013

Change the Weather History Date:

Wednesday, July 10, 2013

  Actual Average Record
Temperature  
Mean Temperature 82 °F 77 °F  
Max Temperature 100 °F 93 °F 108 °F (1938)
Min Temperature 64 °F 61 °F 47 °F (1922)
Degree Days  
Heating Degree Days 0 0  
Month to date heating degree days 0 0  
Since 1 June heating degree days 16 20  
Since 1 July heating degree days 0 0  
Cooling Degree Days 17 12  
Month to date cooling degree days 144 115  
Year to date cooling degree days 667 395  
Since 1 June cooling degree days 526 335  
Growing Degree Days 31 (Base 50)    
Moisture  
Dew Point 58 °F    
Average Humidity 54    
Maximum Humidity 87    
Minimum Humidity 20    
Precipitation  
Precipitation 0.25 in 0.08 in 1.08 in (1927)
Month to date precipitation 0.78 0.75  
Year to date precipitation 3.59  
Sea Level Pressure  
Sea Level Pressure 29.96 in    
Wind  
Wind Speed 14 mph (ESE)    
Max Wind Speed 40 mph    
Max Gust Speed 51 mph    
Visibility 9 miles    
Events Rain , Thunderstorm    
T = Trace of Precipitation, MM = Missing Value Source: NWS Daily Summary

Daily Weather History Graph

Daily Weather History Graph

Search for Another Location

Airport or City:

Trip Planner

Search our weather history database for the weather conditions in past years. The results will help you decide how hot, cold, wet, or windy it might be!

Date:

Astronomy

Jul. 10, 2013 Rise Set
Actual Time 5:36 AM MDT 8:15 PM MDT
Civil Twilight 5:05 AM MDT 8:46 PM MDT
Nautical Twilight 4:27 AM MDT 9:24 PM MDT
Astronomical Twilight 3:44 AM MDT 10:07 PM MDT
Moon 7:56 AM MDT (7/10) 9:29 PM MDT (7/10)
Length of Visible Light 15h 40m
Length of Day
14h 38m
Waxing Crescent, 5% of the Moon is Illuminated
Jul 10
Waxing Crescent
Jul 15
First Quarter
Jul 22
Full
Jul 29
Last Quarter
Aug 6
New

Hourly Weather History & Observations

Time (MDT) Temp. Heat Index Dew Point Humidity Pressure Visibility Wind Dir Wind Speed Gust Speed Precip Events Conditions
12:53 AM 78.1 °F - 57.9 °F 50% 29.89 in 10.0 mi SSW 8.1 mph - N/A   Clear
1:53 AM 78.1 °F - 57.0 °F 48% 29.90 in 10.0 mi Calm Calm - N/A   Clear
2:53 AM 73.9 °F - 57.9 °F 57% 29.91 in 10.0 mi WNW 4.6 mph - N/A   Clear
3:53 AM 73.0 °F - 57.9 °F 59% 29.93 in 10.0 mi NNE 6.9 mph - N/A   Clear
4:53 AM 71.1 °F - 57.9 °F 63% 29.94 in 10.0 mi East 8.1 mph - N/A   Clear
5:53 AM 71.1 °F - 57.9 °F 63% 29.96 in 10.0 mi East 10.4 mph - N/A   Clear
6:53 AM 72.0 °F - 60.1 °F 66% 29.97 in 9.0 mi ESE 15.0 mph - N/A   Clear
7:53 AM 75.0 °F - 63.0 °F 66% 29.97 in 9.0 mi ESE 13.8 mph - N/A   Clear
8:53 AM 82.9 °F 83.2 °F 60.1 °F 46% 29.98 in 10.0 mi SE 16.1 mph - N/A   Clear
9:53 AM 86.0 °F 85.0 °F 57.9 °F 38% 29.98 in 10.0 mi SSE 13.8 mph - N/A   Clear
10:53 AM 90.0 °F 88.6 °F 57.0 °F 33% 29.96 in 10.0 mi South 13.8 mph 19.6 mph N/A   Clear
11:53 AM 93.0 °F 91.7 °F 57.0 °F 30% 29.94 in 10.0 mi SSE 9.2 mph 16.1 mph N/A   Clear
12:53 PM 96.1 °F 93.8 °F 54.0 °F 24% 29.92 in 10.0 mi SSE 8.1 mph 16.1 mph N/A   Clear
1:53 PM 98.1 °F 95.7 °F 53.1 °F 22% 29.89 in 10.0 mi ESE 12.7 mph 23.0 mph N/A   Partly Cloudy
2:53 PM 98.1 °F - 50.0 °F 20% 29.87 in 10.0 mi SE 10.4 mph 24.2 mph N/A   Clear
3:53 PM 98.1 °F - 50.0 °F 20% 29.84 in 10.0 mi East 6.9 mph 16.1 mph N/A   Partly Cloudy
4:53 PM 91.0 °F 89.7 °F 57.0 °F 32% 29.85 in 8.0 mi East 29.9 mph 38.0 mph N/A   Mostly Cloudy
5:53 PM 87.1 °F 85.7 °F 55.9 °F 35% 29.84 in 9.0 mi ESE 26.5 mph 34.5 mph N/A   Clear
6:53 PM 87.1 °F 85.7 °F 55.9 °F 35% 29.90 in 10.0 mi East 10.4 mph 23.0 mph N/A Thunderstorm Mostly Cloudy
7:16 PM 66.2 °F - 62.6 °F 88% 30.11 in 5.0 mi North 39.1 mph 50.6 mph 0.01 in Rain , Thunderstorm Light Thunderstorms and Rain
7:42 PM 64.4 °F - 60.8 °F 88% 30.15 in 2.0 mi North 40.3 mph 50.6 mph 0.14 in Rain , Thunderstorm Heavy Thunderstorms and Rain
7:53 PM 64.9 °F - 61.0 °F 87% 30.04 in 3.0 mi North 26.5 mph 44.9 mph 0.19 in Rain , Thunderstorm Thunderstorms and Rain
8:53 PM 68.0 °F - 63.0 °F 84% 30.04 in 10.0 mi East 17.3 mph 25.3 mph 0.06 in   Mostly Cloudy
9:53 PM 68.0 °F - 62.1 °F 81% 30.00 in 10.0 mi SE 12.7 mph - N/A   Clear
10:27 PM 66.2 °F - 62.6 °F 88% 30.18 in 10.0 mi ENE 23.0 mph 28.8 mph N/A   Clear
10:53 PM 66.9 °F - 62.1 °F 84% 30.02 in 10.0 mi East 26.5 mph 33.4 mph N/A   Clear
11:53 PM 68.0 °F - 57.9 °F 70% 29.99 in 10.0 mi East 19.6 mph - N/A   Clear